Weather History for Pope Field Airport, NC

Change the Weather History Date:

Monday, March 3, 2014

  Actual Average Record
Temperature  
Mean Temperature 41 °F -  
Max Temperature 58 °F 63 °F 84 °F (1997)
Min Temperature 24 °F 39 °F 17 °F (1980)
Degree Days  
Heating Degree Days 24    
Moisture  
Dew Point 34 °F    
Average Humidity 87    
Maximum Humidity 100    
Minimum Humidity 62    
Precipitation  
Precipitation 0.24 in - - ()
Sea Level Pressure  
Sea Level Pressure 30.06 in    
Wind  
Wind Speed 13 mph (NE)    
Max Wind Speed 25 mph    
Max Gust Speed 33 mph    
Visibility 9 miles    
Events Rain    
Averages and records for this station are not official NWS values.
T = Trace of Precipitation, MM = Missing Value Source: NWS Daily Summary

Daily Weather History Graph

Daily Weather History Graph

Search for Another Location

Airport:

Trip Planner

Search our weather history database for the weather conditions in past years. The results will help you decide how hot, cold, wet, or windy it might be!

Date:

Astronomy

Mar. 03, 2014 Rise Set
Actual Time 6:43 AM EST 6:13 PM EST
Civil Twilight 6:17 AM EST 6:38 PM EST
Nautical Twilight 5:48 AM EST 7:08 PM EST
Astronomical Twilight 5:18 AM EST 7:37 PM EST
Moon 7:57 AM EST (3/3) 9:06 PM EST (3/3)
Length of Visible Light 12h 21m
Length of Day
11h 30m
Waxing Crescent, 8% of the Moon is Illuminated
Mar 3
Waxing Crescent
Mar 8
First Quarter
Mar 16
Full
Mar 23
Last Quarter
Mar 30
New

Hourly Weather History & Observations

Time (EST) Temp. Windchill Dew Point Humidity Pressure Visibility Wind Dir Wind Speed Gust Speed Precip Events Conditions
12:58 AM 58.6 °F - 46.9 °F 65% 29.93 in 10.0 mi SW 11.5 mph - N/A   Partly Cloudy
1:58 AM 58.6 °F - 46.8 °F 65% 29.90 in 10.0 mi SW 12.7 mph - N/A   Partly Cloudy
2:58 AM 58.3 °F - 45.9 °F 63% 29.87 in 10.0 mi SW 13.8 mph 21.9 mph N/A   Clear
3:58 AM 55.8 °F - 45.7 °F 69% 29.87 in 10.0 mi SW 9.2 mph - N/A   Clear
4:58 AM 55.4 °F - 45.3 °F 69% 29.86 in 10.0 mi SW 10.4 mph - N/A   Clear
5:58 AM 54.9 °F - 43.9 °F 66% 29.87 in 10.0 mi SW 10.4 mph - N/A   Clear
6:58 AM 55.4 °F - 42.8 °F 63% 29.87 in 10.0 mi SSW 9.2 mph - N/A   Clear
7:58 AM 55.0 °F - 42.1 °F 62% 29.88 in 10.0 mi SSW 5.8 mph - N/A   Scattered Clouds
8:58 AM 56.1 °F - 43.5 °F 63% 29.88 in 10.0 mi SW 4.6 mph - N/A   Partly Cloudy
9:42 AM 57.2 °F - 46.4 °F 67% 29.87 in 10.0 mi Variable 5.8 mph - N/A Rain Light Rain
9:57 AM 57.2 °F - 48.2 °F 72% 29.89 in 10.0 mi NW 5.8 mph - N/A   Overcast
9:58 AM 57.2 °F - 48.2 °F 72% 29.90 in 10.0 mi NW 5.8 mph - 0.00 in   Overcast
10:23 AM 55.4 °F - 48.2 °F 77% 29.89 in 10.0 mi NNE 9.2 mph - N/A Rain Light Rain
10:29 AM 55.4 °F - 48.2 °F 77% 29.90 in 10.0 mi NNE 8.1 mph - N/A Rain Rain
10:39 AM 53.6 °F - 50.0 °F 88% 29.91 in 3.0 mi NNE 9.2 mph - N/A Rain Heavy Rain
10:58 AM 52.2 °F - 50.4 °F 94% 29.92 in 3.0 mi ENE 8.1 mph - 0.13 in Rain Light Rain
11:08 AM 51.8 °F - 50.0 °F 94% 29.91 in 4.0 mi ENE 8.1 mph - N/A Rain Rain
11:28 AM 50.0 °F - 48.2 °F 94% 29.91 in 5.0 mi ENE 13.8 mph - N/A Rain Light Rain
11:53 AM 46.4 °F 39.5 °F 44.6 °F 93% 29.91 in 5.0 mi ENE 17.3 mph - N/A Rain Light Rain
11:58 AM 46.9 °F - 45.3 °F 94% 29.93 in 5.0 mi ENE 15.0 mph - 0.07 in Rain Light Rain
12:58 PM 43.0 °F 35.7 °F 41.4 °F 94% 29.95 in 6.0 mi NE 15.0 mph - 0.00 in Rain Light Rain
1:28 PM 41.0 °F 31.6 °F 37.4 °F 87% 29.95 in 4.0 mi NE 20.7 mph 26.5 mph N/A Rain Light Rain
1:43 PM 39.2 °F 30.8 °F 37.4 °F 93% 29.96 in 4.0 mi NE 15.0 mph 25.3 mph N/A Rain Light Rain
1:48 PM 39.2 °F 30.8 °F 37.4 °F 93% 29.97 in 6.0 mi NE 15.0 mph - N/A Rain Light Rain
1:58 PM 39.2 °F 30.5 °F 37.4 °F 93% 29.98 in 10.0 mi NE 16.1 mph - 0.02 in Rain Light Rain
2:08 PM 39.2 °F 29.6 °F 37.4 °F 93% 29.98 in 10.0 mi NE 19.6 mph - N/A   Light Drizzle
2:38 PM 37.4 °F 27.5 °F 35.6 °F 93% 29.99 in 7.0 mi NE 18.4 mph 25.3 mph N/A Rain Light Rain
2:58 PM 36.9 °F 25.6 °F 35.1 °F 93% 30.01 in 9.0 mi NE 23.0 mph - 0.02 in Rain Light Rain
3:18 PM 37.4 °F 27.2 °F 35.6 °F 93% 30.02 in 8.0 mi NE 19.6 mph 25.3 mph N/A Rain Light Rain
3:23 PM 35.6 °F 23.4 °F 33.8 °F 93% 30.02 in 9.0 mi NNE 25.3 mph 32.2 mph N/A Rain Light Rain
3:33 PM 35.6 °F 24.8 °F 32.0 °F 87% 30.04 in 10.0 mi NE 19.6 mph 28.8 mph N/A Rain Light Rain
3:43 PM 33.8 °F 21.9 °F 32.0 °F 93% 30.04 in 10.0 mi NNE 21.9 mph 28.8 mph N/A   Light Drizzle
3:49 PM 32.0 °F 19.8 °F 32.0 °F 100% 30.04 in 10.0 mi NE 20.7 mph 29.9 mph N/A   Overcast
3:54 PM 32.0 °F 20.5 °F 32.0 °F 100% 30.04 in 10.0 mi NE 18.4 mph 29.9 mph N/A   Overcast
3:57 PM 32.0 °F 20.5 °F 32.0 °F 100% 30.05 in 10.0 mi NE 18.4 mph 29.9 mph N/A   Overcast
3:58 PM 32.0 °F 20.5 °F 32.0 °F 100% 30.06 in 10.0 mi NNE 18.4 mph 28.8 mph 0.00 in   Overcast
4:01 PM 32.0 °F 18.9 °F 32.0 °F 100% 30.04 in 10.0 mi NE 24.2 mph 25.3 mph N/A   Light Drizzle
4:11 PM 32.0 °F 19.8 °F 30.2 °F 93% 30.06 in 10.0 mi NNE 20.7 mph 33.4 mph N/A   Overcast
4:16 PM 32.0 °F 19.8 °F 30.2 °F 93% 30.06 in 9.0 mi NE 20.7 mph 27.6 mph N/A   Overcast
4:36 PM 32.0 °F 18.9 °F 28.4 °F 87% 30.07 in 10.0 mi NE 24.2 mph - N/A   Overcast
4:58 PM 31.6 °F 19.7 °F 28.6 °F 88% 30.09 in 10.0 mi NE 19.6 mph 25.3 mph 0.00 in   Overcast
5:12 PM 32.0 °F 19.2 °F 28.4 °F 87% 30.09 in 10.0 mi NE 23.0 mph 29.9 mph N/A Rain Light Freezing Rain
5:23 PM 32.0 °F 20.1 °F 28.4 °F 87% 30.09 in 10.0 mi NE 19.6 mph 24.2 mph N/A Rain Light Freezing Rain
5:24 PM 32.0 °F 19.8 °F 28.4 °F 87% 30.09 in 10.0 mi NE 20.7 mph 25.3 mph N/A Rain Light Freezing Rain
5:29 PM 32.0 °F 20.5 °F 28.4 °F 87% 30.10 in 10.0 mi NE 18.4 mph - N/A Rain Light Freezing Rain
5:39 PM 32.0 °F 21.6 °F 28.4 °F 87% 30.11 in 10.0 mi NE 15.0 mph - N/A Rain Light Freezing Rain
5:40 PM 32.0 °F 22.5 °F 28.4 °F 87% 30.11 in 9.0 mi NE 12.7 mph - N/A   Light Freezing Drizzle
5:45 PM 32.0 °F 22.5 °F 28.4 °F 87% 30.11 in 8.0 mi NE 12.7 mph - N/A   Light Freezing Drizzle
5:58 PM 31.1 °F 18.9 °F 29.3 °F 93% 30.13 in 7.0 mi NE 19.6 mph 23.0 mph 0.00 in Rain Light Freezing Rain
6:18 PM 32.0 °F 21.2 °F 28.4 °F 87% 30.14 in 9.0 mi NE 16.1 mph 20.7 mph N/A Rain Light Freezing Rain
6:23 PM 32.0 °F 23.0 °F 28.4 °F 87% 30.16 in 10.0 mi NE 11.5 mph - N/A Rain Light Freezing Rain
6:28 PM 32.0 °F 24.8 °F 28.4 °F 87% 30.15 in 10.0 mi NNE 8.1 mph - N/A Rain Light Freezing Rain
6:30 PM 32.0 °F 22.1 °F 28.4 °F 87% 30.15 in 10.0 mi NE 13.8 mph 17.3 mph N/A Rain Light Freezing Rain
6:35 PM 32.0 °F 22.5 °F 28.4 °F 87% 30.15 in 10.0 mi NE 12.7 mph 17.3 mph N/A Rain Light Freezing Rain
6:40 PM 32.0 °F 21.6 °F 28.4 °F 87% 30.16 in 8.0 mi NE 15.0 mph - N/A Rain Light Freezing Rain
6:45 PM 32.0 °F 21.6 °F 28.4 °F 87% 30.15 in 5.0 mi ENE 15.0 mph - N/A Rain Light Freezing Rain
6:53 PM 32.0 °F 23.0 °F 28.4 °F 87% 30.16 in 3.0 mi NE 11.5 mph - N/A Rain Light Freezing Rain
6:58 PM 30.7 °F 21.4 °F 28.8 °F 92% 30.17 in 5.0 mi NE 11.5 mph - 0.00 in Rain Light Freezing Rain
7:13 PM 32.0 °F 23.0 °F 28.4 °F 87% 30.15 in 8.0 mi NE 11.5 mph - N/A Rain Light Freezing Rain
7:15 PM 30.2 °F 19.8 °F 28.4 °F 93% 30.16 in 8.0 mi NE 13.8 mph - N/A Rain Light Freezing Rain
7:27 PM 30.2 °F 19.8 °F 28.4 °F 93% 30.16 in 10.0 mi NE 13.8 mph - N/A Rain Light Freezing Rain
7:28 PM 30.2 °F 20.2 °F 28.4 °F 93% 30.16 in 9.0 mi NE 12.7 mph - N/A Rain Light Freezing Rain
7:34 PM 30.2 °F 20.8 °F 28.4 °F 93% 30.17 in 7.0 mi NE 11.5 mph - N/A Rain Light Freezing Rain
7:41 PM 30.2 °F 20.8 °F 28.4 °F 93% 30.17 in 8.0 mi NE 11.5 mph - N/A Rain Light Freezing Rain
7:45 PM 30.2 °F 21.3 °F 28.4 °F 93% 30.17 in 9.0 mi NE 10.4 mph - N/A Rain Light Freezing Rain
7:50 PM 30.2 °F 20.2 °F 28.4 °F 93% 30.18 in 10.0 mi NE 12.7 mph - N/A Rain Light Freezing Rain
7:55 PM 30.2 °F 19.3 °F 26.6 °F 86% 30.18 in 10.0 mi NE 15.0 mph - N/A Rain Light Freezing Rain
7:58 PM 29.7 °F 19.6 °F 27.1 °F 90% 30.19 in 10.0 mi NE 12.7 mph - 0.00 in   Light Freezing Drizzle
8:03 PM 30.2 °F 19.8 °F 26.6 °F 86% 30.17 in 10.0 mi NE 13.8 mph - N/A   Light Freezing Drizzle
8:06 PM 28.4 °F 17.5 °F 26.6 °F 93% 30.16 in 10.0 mi NE 13.8 mph - N/A   Overcast
8:11 PM 28.4 °F 16.6 °F 26.6 °F 93% 30.18 in 10.0 mi NE 16.1 mph - N/A   Overcast
8:58 PM 28.0 °F 18.6 °F 25.2 °F 89% 30.22 in 10.0 mi NE 10.4 mph - 0.00 in   Overcast
9:18 PM 26.6 °F 14.7 °F 23.0 °F 86% 30.23 in 10.0 mi NE 15.0 mph - N/A   Overcast
9:38 PM 26.6 °F 17.5 °F 24.8 °F 93% 30.23 in 10.0 mi NNE 9.2 mph - N/A   Overcast
9:43 PM 26.6 °F 15.2 °F 24.8 °F 93% 30.24 in 10.0 mi NNE 13.8 mph - N/A   Overcast
9:48 PM 26.6 °F 14.7 °F 23.0 °F 86% 30.24 in 10.0 mi NE 15.0 mph - N/A   Overcast
9:58 PM 26.8 °F 15.9 °F 23.0 °F 86% 30.27 in 10.0 mi NE 12.7 mph - N/A   Overcast
10:28 PM 26.6 °F 14.3 °F 21.2 °F 80% 30.26 in 10.0 mi NE 16.1 mph - N/A   Overcast
10:58 PM 25.3 °F 14.7 °F 21.6 °F 86% 30.27 in 10.0 mi NE 11.5 mph - N/A   Overcast
11:03 PM 24.8 °F 14.6 °F 21.2 °F 86% 30.26 in 10.0 mi NE 10.4 mph - N/A   Overcast
11:58 PM 25.2 °F 13.9 °F 21.2 °F 85% 30.27 in 10.0 mi NNE 12.7 mph - N/A   Overcast